DRK400 VQPR-VNKT

Flight info

Callsign DRK400
Flight time N/A
Altitude 34000
Route PRO G348 KIMTI
Aircraft A319/M-SDE3FGHIRWY/LB1

Departure

Time 2026-04-27 02:07
Airport Paro International Airport (VQPR)

Arrival

Time N/A
Airport Tribhuvan International Airport (VNKT)
Time Latitude Longitude Altitude Speed Heading
2026-04-27 01:37 27.40597 89.42122 7355 ft 0 kts 240°
2026-04-27 01:58 27.40598 89.42124 7355 ft 2 kts 240°
2026-04-27 01:58 27.40609 89.42150 7357 ft 4 kts 256°
2026-04-27 01:58 27.40611 89.42179 7358 ft 4 kts 300°
2026-04-27 01:59 27.40604 89.42189 7356 ft 1 kts 329°
2026-04-27 02:03 27.40610 89.42185 7356 ft 4 kts 329°
2026-04-27 02:03 27.40667 89.42148 7358 ft 14 kts 330°
2026-04-27 02:03 27.40753 89.42094 7359 ft 13 kts 331°
2026-04-27 02:04 27.40810 89.42068 7361 ft 6 kts 25°
2026-04-27 02:04 27.40832 89.42100 7362 ft 5 kts 64°
2026-04-27 02:04 27.40869 89.42127 7363 ft 10 kts 342°
2026-04-27 02:04 27.40958 89.42068 7366 ft 16 kts 330°
2026-04-27 02:05 27.41051 89.42009 7368 ft 14 kts 330°
2026-04-27 02:05 27.41132 89.41957 7370 ft 13 kts 329°
2026-04-27 02:05 27.41187 89.41897 7375 ft 9 kts 339°
2026-04-27 02:05 27.41198 89.41917 7373 ft 3 kts 158°
2026-04-27 02:06 27.41168 89.41934 7371 ft 10 kts 151°
2026-04-27 02:06 27.40919 89.42092 7364 ft 82 kts 150°
2026-04-27 02:06 27.40490 89.42366 7350 ft 133 kts 150°
2026-04-27 02:06 27.39518 89.42985 7589 ft 169 kts 150°
2026-04-27 02:07 27.38526 89.43708 8382 ft 175 kts 134°
2026-04-27 02:07 27.37996 89.44959 9067 ft 183 kts 97°
2026-04-27 02:07 27.37785 89.46360 9985 ft 182 kts 110°
2026-04-27 02:07 27.36649 89.47690 10948 ft 179 kts 154°
2026-04-27 02:08 27.35930 89.48122 11466 ft 175 kts 150°
2026-04-27 02:08 27.34895 89.48801 12206 ft 170 kts 149°
2026-04-27 02:08 27.33931 89.49551 12652 ft 173 kts 134°
2026-04-27 02:08 27.33235 89.50698 12989 ft 179 kts 121°
2026-04-27 02:09 27.32549 89.51941 13233 ft 197 kts 127°
2026-04-27 02:09 27.31351 89.52775 13348 ft 215 kts 172°
2026-04-27 02:09 27.29859 89.52482 13569 ft 230 kts 211°
2026-04-27 02:09 27.28792 89.51076 13675 ft 253 kts 251°
2026-04-27 02:10 27.28553 89.49043 13916 ft 275 kts 268°
2026-04-27 02:10 27.28224 89.46840 14115 ft 300 kts 248°
2026-04-27 02:10 27.27157 89.44716 14302 ft 324 kts 239°
2026-04-27 02:10 27.25986 89.42445 14449 ft 347 kts 241°
2026-04-27 02:11 27.24786 89.40014 14726 ft 363 kts 242°
2026-04-27 02:11 27.23567 89.37500 15266 ft 368 kts 242°
2026-04-27 02:11 27.22340 89.34960 15850 ft 372 kts 243°
2026-04-27 02:11 27.21089 89.32387 16476 ft 376 kts 243°
2026-04-27 02:12 27.19828 89.29814 17077 ft 378 kts 243°
2026-04-27 02:12 27.18544 89.27216 17649 ft 382 kts 243°
2026-04-27 02:12 27.17244 89.24601 18252 ft 385 kts 243°
2026-04-27 02:12 27.15950 89.21998 18779 ft 388 kts 243°
2026-04-27 02:13 27.14627 89.19337 19313 ft 390 kts 243°
2026-04-27 02:13 27.13291 89.16648 19870 ft 392 kts 243°
2026-04-27 02:13 27.12861 89.15781 20057 ft 392 kts 243°
2026-04-27 02:13 27.11078 89.12194 20844 ft 395 kts 243°
2026-04-27 02:14 27.09301 89.08632 21569 ft 397 kts 243°